Dewpoint
45 44 44 44 44 42 40 39 35 42 46 35 33 34 35 34 29 30 28 27 26 23 23 21 19 18 25 36 31 26 31 30 25 21 25 21 23 22 26 29 25 31 30 25
43 44 44 44 42 38 38 37 37 41 44 32 34 35 36 36 31 30 29 28 28 28 25 21 24 23 35 34 28 28 29 27 21 14 19 26 25 20 23 25 30 27 25 22
42 42 44 43 40 38 37 38 32 36 37 36 34 34 34 32 33 32 31 30 30 29 27 27 24 25 31 34 30 36 32 27 28 19 16 20 21 19 20 24 25 21 18 16
41 42 44 43 40 36 33 38 32 33 32 33 35 33 28 29 29 29 29 29 29 25 21 21 23 24 25 27 33 33 33 31 32 30 26 24 24 22 23 21 22 24 20 17
41 41 42 44 40 36 35 34 33 31 29 31 31 30 27 24 21 23 21 20 20 23 22 19 19 27 28 25 29 35 36 31 31 28 29 28 26 23 23 25 23 22 23 23
41 41 41 43 39 36 39 38 33 30 27 27 27 25 23 20 21 21 19 19 21 20 21 26 25 24 24 25 25 25 28 27 25 21 22 27 24 24 23 23 23 27 29 28
40 41 41 43 38 36 35 34 32 30 24 26 23 22 21 19 20 20 23 22 18 25 25 23 20 19 19 20 19 20 20 23 24 22 19 16 15 14 15 17 18 20 21 23
39 40 41 42 38 38 35 36 31 31 26 17 21 20 20 22 23 21 21 21 19 27 21 19 19 15 20 16 9 9 18 19 22 19 14 11 9 11 19 22 21 20 19 20
41 41 41 41 41 39 38 36 37 31 28 20 16 19 20 19 18 18 16 21 22 23 22 23 11 3 2 -3 5 23 17 21 24 22 17 12 17 12 15 21 23 20 24 27
42 41 41 41 42 39 37 35 39 32 32 24 21 18 18 17 17 20 23 26 28 27 26 22 16 10 4 2 8 7 22 27 26 24 21 20 17 16 28 23 18 24 27 27
42 42 42 41 42 40 37 36 38 31 31 26 26 24 24 22 21 20 22 23 25 28 24 19 16 18 10 10 15 5 6 12 16 22 22 20 21 22 25 27 30 28 30 29
42 42 42 40 39 41 37 32 36 36 33 27 29 28 28 26 23 22 25 21 25 26 24 20 19 19 20 15 13 16 19 22 19 16 19 25 30 31 33 34 32 31 31 31
42 42 40 40 39 40 37 32 35 35 34 30 29 29 30 30 30 29 25 22 22 25 29 29 26 20 16 15 14 14 15 20 24 25 23 24 26 26 29 29 32 31 31 33
41 42 42 41 40 39 38 38 38 35 33 28 24 27 29 29 31 31 30 27 26 26 25 28 24 20 18 16 15 15 14 19 24 25 24 24 28 29 30 30 32 31 35 36
41 41 41 41 41 39 41 42 41 37 32 27 27 29 28 29 30 31 31 30 28 26 27 27 23 21 22 21 21 19 17 19 20 18 18 26 35 34 33 33 31 33 33 35
41 41 41 41 40 38 38 32 34 38 37 31 23 25 27 26 29 30 30 31 30 32 30 25 24 24 23 21 18 16 16 17 20 24 25 30 35 35 31 31 32 34 33 34
40 39 38 37 37 38 35 31 38 39 40 31 25 25 29 29 29 33 31 32 33 32 30 27 23 23 25 25 21 17 17 19 21 24 32 34 35 30 32 33 33 35 34 35
37 36 36 37 37 38 36 40 39 40 34 34 26 23 29 36 33 31 34 32 32 31 29 26 23 23 27 24 19 20 22 23 24 25 38 37 31 31 31 33 34 33 33 34
36 36 36 38 36 33 37 40 41 40 36 29 25 22 22 35 33 34 34 32 26 32 25 24 26 25 24 21 18 19 21 24 28 30 34 32 31 31 29 33 33 32 33 34
36 38 36 33 37 40 41 38 34 33 33 34 27 28 27 31 29 30 31 33 25 23 23 25 28 25 22 20 21 22 29 27 30 29 30 30 29 29 30 31 33 33 34 35
38 36 35 38 37 38 34 30 28 27 26 27 27 25 26 32 28 27 29 28 26 23 27 26 24 22 24 23 24 27 29 29 28 27 26 29 30 31 34 35 35 35 35 34
37 38 38 36 33 30 26 23 24 22 18 24 24 25 29 31 33 29 28 24 25 17 28 26 20 24 24 29 30 31 32 33 30 27 26 33 33 34 36 35 34 34 35 34
38 35 30 29 25 22 19 14 15 21 25 29 31 30 31 30 31 27 27 24 23 28 25 21 23 27 30 31 31 31 32 32 30 30 31 34 34 35 35 34 34 34 33 33
30 27 22 24 21 21 20 18 28 32 33 31 31 31 31 29 27 25 22 25 25 21 19 18 29 31 31 33 33 32 31 32 32 32 32 33 31 31 31 32 32 32 31 31
28 26 20 22 26 29 32 32 32 33 34 31 31 32 32 27 25 24 23 22 19 20 23 30 34 32 33 34 34 33 32 31 31 31 29 28 30 30 29 30 32 31 28 28
31 27 25 29 28 31 31 32 33 33 33 34 34 30 28 25 24 22 20 18 19 27 33 34 34 34 35 34 34 32 31 31 30 30 29 29 29 29 28 27 27 27 27 27
27 26 32 31 32 32 34 35 31 34 33 31 30 27 22 29 24 23 25 26 32 35 35 34 33 35 33 33 32 30 29 29 29 29 29 29 28 27 27 27 27 27 27 27
Lifted_Index
7 7 8 8 7 6 5 5 5 5 5 5 4 4 5 5 5 4 4 4 4 4 4 4 4 4 3 3 3 3 3 3 3 3 3 3 3 2 2 1 1 1 1 1
7 7 7 8 7 6 5 5 5 5 5 4 4 4 4 4 4 4 3 3 3 3 3 3 3 3 3 3 3 3 3 3 3 3 3 3 3 3 2 2 2 2 1 1
7 7 7 8 8 7 6 5 5 4 4 3 3 3 3 3 3 3 2 2 3 3 3 3 3 3 3 3 3 3 3 3 3 3 3 3 3 3 3 2 2 2 2 2
7 7 6 7 7 7 6 6 5 4 3 3 2 2 2 2 2 2 3 3 3 3 3 3 3 3 3 3 3 2 2 3 3 3 3 3 3 3 3 2 2 1 1 1
5 5 5 5 6 7 6 6 5 4 3 3 2 2 2 2 3 4 4 4 3 3 3 3 3 4 4 4 3 3 2 3 3 3 3 2 3 3 3 2 1 0 -0 -0
4 4 4 4 5 6 6 6 5 4 4 3 3 3 4 4 5 5 5 4 4 4 4 4 5 5 5 5 4 4 3 3 3 3 3 2 2 3 2 1 0 -0 -1 -1
3 3 3 3 4 5 5 5 5 4 4 4 4 4 5 5 5 5 5 5 4 5 5 5 6 6 6 6 6 5 5 4 3 3 2 2 3 3 2 1 0 -0 -1 -1
3 3 3 3 4 5 5 5 5 5 4 4 4 4 4 4 4 4 5 5 5 5 5 5 5 5 6 6 6 5 4 4 3 2 2 2 3 2 1 0 0 -0 -0 -0
3 3 3 3 4 4 5 5 5 5 4 4 5 4 4 4 4 4 4 5 5 5 5 5 5 5 5 5 5 4 3 3 2 2 1 2 2 2 1 0 0 -0 -0 -0
3 3 3 3 3 4 4 4 4 4 4 4 5 4 4 4 4 4 4 4 5 5 5 4 4 5 5 5 4 3 2 2 1 1 1 1 1 1 0 -0 0 -0 -0 0
2 2 3 3 3 3 4 4 4 4 4 4 5 5 4 4 4 4 4 4 4 4 4 4 4 4 4 4 4 3 3 2 1 1 0 0 1 0 -0 -0 -0 -0 0 0
2 2 2 3 3 3 3 4 4 5 5 5 5 5 5 5 4 4 4 5 4 4 4 3 3 4 4 4 4 3 3 2 1 1 1 0 0 0 0 0 0 0 0 0
1 2 2 2 3 3 3 4 4 5 5 5 5 4 4 4 4 5 5 5 5 4 4 4 4 4 4 4 4 4 3 2 1 1 1 1 0 0 1 1 0 0 0 0
1 1 2 2 2 3 3 3 4 4 4 4 4 4 4 4 4 5 5 5 5 4 4 5 5 5 5 5 5 4 4 3 2 2 2 1 1 0 1 1 0 -0 -0 -0
1 1 1 2 2 3 3 3 3 3 4 4 4 4 3 4 4 4 4 4 4 4 5 5 5 5 5 5 5 5 4 4 4 3 2 2 1 0 1 1 0 -0 -0 0
1 1 2 2 3 3 3 3 3 3 3 4 4 3 3 3 3 4 4 3 4 4 5 5 5 5 5 5 5 5 5 5 4 3 3 2 1 1 1 1 0 0 0 1
2 2 2 3 3 3 4 3 3 3 3 4 4 3 2 3 3 3 3 3 4 4 4 5 5 5 5 5 5 5 5 5 4 4 3 2 2 1 1 1 1 1 1 2
3 3 3 3 3 3 3 3 3 3 3 4 3 2 2 2 3 3 4 4 4 4 4 5 5 5 5 5 5 4 4 4 4 3 2 2 2 2 1 1 1 2 2 2
3 3 3 3 3 3 3 3 3 3 3 3 3 2 2 2 2 3 3 4 4 4 4 4 4 4 5 5 4 3 3 3 3 3 2 2 2 2 2 1 1 2 2 2
3 3 2 2 2 2 2 2 3 3 3 3 3 3 3 3 2 2 3 3 3 3 4 4 4 3 4 4 4 3 3 3 3 3 3 3 3 2 2 1 1 1 1 1
3 2 2 2 2 2 2 2 3 3 3 3 3 3 3 3 3 3 2 3 3 3 3 3 3 2 3 4 4 3 3 3 3 4 3 3 2 2 1 1 1 1 2 2
2 2 2 2 3 3 3 3 3 3 3 3 3 3 3 3 4 3 3 3 3 3 3 2 2 2 3 3 3 3 3 4 4 4 4 3 2 1 1 1 1 2 2 3
2 2 2 3 3 3 3 3 3 3 3 3 3 3 3 4 4 4 3 3 3 3 3 2 2 3 3 3 3 3 3 3 4 4 3 2 1 1 1 1 2 3 4 4
3 3 3 3 3 3 3 3 2 2 3 3 3 3 3 3 4 4 4 3 3 3 2 2 2 2 2 2 2 2 2 2 3 3 3 2 2 1 2 2 3 4 5 5
3 3 3 3 3 3 3 3 3 2 3 3 3 2 2 2 3 3 3 3 2 2 1 1 1 2 2 2 2 2 2 2 3 2 2 2 2 2 3 4 5 5 5 5
3 3 3 2 2 2 2 2 3 3 3 3 2 2 2 2 2 2 2 1 1 1 1 1 2 2 2 2 2 3 3 3 3 3 3 3 3 4 5 5 6 6 6 6
3 2 2 2 2 2 2 2 3 3 3 3 2 2 1 2 1 1 1 1 0 1 1 2 2 2 2 2 3 3 4 4 4 4 4 4 4 5 5 6 6 6 6 6